Agadir Al Massira, Morocco

5:37 AM WET on May 28, 2017 (GMT +0000)
Agadir Al Massira

Weather History for GMAD - March, 2013

Change the Weather History Date:

Saturday, March 16, 2013

  Actual Average Record
Temperature  
Mean Temperature 74 °F -  
Max Temperature 88 °F - - ()
Min Temperature 60 °F - - ()
Cooling Degree Days 9    
Growing Degree Days 24 (Base 50)    
Moisture  
Dew Point 51 °F    
Average Humidity 50    
Maximum Humidity 88    
Minimum Humidity 13    
Precipitation  
Precipitation 0.00 in - - ()
Sea Level Pressure  
Sea Level Pressure 29.81 in    
Wind  
Wind Speed 8 mph ()    
Max Wind Speed 14 mph    
Max Gust Speed -    
Visibility 5.6 miles    
Events      
T = Trace of Precipitation, MM = Missing Value Source: Averaged Metar Reports

Daily Weather History Graph

Daily Weather History Graph

Search for Another Location

Airport or City:

Trip Planner

Search our weather history database for the weather conditions in past years. The results will help you decide how hot, cold, wet, or windy it might be!

Date:

Astronomy

Mar. 16, 2013 Rise Set
Actual Time 6:46 AM WET 6:46 PM WET
Civil Twilight 6:22 AM WET 7:10 PM WET
Nautical Twilight 5:54 AM WET 7:38 PM WET
Astronomical Twilight 5:26 AM WET 8:06 PM WET
Moon 9:27 AM WET (3/16) 11:21 PM WET (3/16)
Length of Visible Light 12h 48m
Length of Day
12h 00m
Waxing Crescent, 21% of the Moon is Illuminated
Mar 16
Waxing Crescent
Mar 19
First Quarter
Mar 27
Full
Apr 3
Last Quarter
Apr 10
New

Hourly Weather History & Observations

Time (WET) Temp. Dew Point Humidity Pressure Visibility Wind Dir Wind Speed Gust Speed Precip Events Conditions
12:00 AM 62 °F 57 °F 77% 29.91 in 6 mi ENE 8.1 mph - -   Clear
12:00 AM 62.6 °F 57.2 °F 82% 29.89 in - ENE 8.1 mph - N/A   Clear
1:00 AM 62.6 °F 57.2 °F 82% 29.89 in - ENE 10.4 mph - N/A   Clear
2:00 AM 60.8 °F 57.2 °F 88% 29.89 in 6.2 mi ENE 6.9 mph - N/A   Unknown
3:00 AM 63 °F 55 °F 67% 29.86 in 6 mi ENE 10.4 mph - -   Clear
3:00 AM 62.6 °F 55.4 °F 77% 29.86 in - ENE 10.4 mph - N/A   Clear
4:00 AM 64.4 °F 53.6 °F 68% 29.83 in - East 10.4 mph - N/A   Clear
5:00 AM 62.6 °F 53.6 °F 72% 29.83 in 6.2 mi East 6.9 mph - N/A   Unknown
6:00 AM 60.8 °F 53.6 °F 77% 29.83 in - ENE 9.2 mph - N/A   Clear
7:00 AM 60.8 °F 53.6 °F 77% 29.86 in - ENE 8.1 mph - N/A   Clear
8:00 AM 64.4 °F 53.6 °F 68% 29.86 in 6.2 mi NE 8.1 mph - N/A   Unknown
9:00 AM 67 °F 54 °F 55% 29.88 in 5 mi ENE 10.4 mph - -   Overcast
9:00 AM 68.0 °F 55.4 °F 64% 29.86 in 5.0 mi ENE 10.4 mph - N/A   Scattered Clouds
10:00 AM 69.8 °F 55.4 °F 60% 29.86 in 6.2 mi NE 10.4 mph - N/A   Scattered Clouds
11:00 AM 75.2 °F 57.2 °F 53% 29.86 in 6.2 mi ENE 8.1 mph - N/A   Mostly Cloudy
12:00 PM 81 °F 50 °F 23% 29.84 in 6 mi ENE 13.8 mph - -   Overcast
12:00 PM 80.6 °F 50.0 °F 34% 29.83 in 5.0 mi ENE 12.7 mph - N/A   Mostly Cloudy
1:00 PM 84.2 °F 46.4 °F 27% 29.83 in 3.7 mi ENE 13.8 mph - N/A   Mostly Cloudy
2:00 PM 86.0 °F 44.6 °F 23% 29.80 in 6.2 mi ENE 11.5 mph - N/A   Mostly Cloudy
3:00 PM 88 °F 44 °F 13% 29.77 in 6 mi ENE 12.7 mph - -   Overcast
3:00 PM 87.8 °F 44.6 °F 22% 29.77 in 6.2 mi ENE 12.7 mph - N/A   Mostly Cloudy
4:00 PM 87.8 °F 42.8 °F 21% 29.77 in 3.7 mi ENE 12.7 mph - N/A   Mostly Cloudy
5:00 PM 84.2 °F 48.2 °F 29% 29.74 in 6.2 mi ENE 6.9 mph - N/A   Mostly Cloudy
6:00 PM 83 °F 49 °F 21% 29.73 in 6 mi East 3.5 mph - -   Overcast
6:00 PM 82.4 °F 50.0 °F 32% 29.74 in 6.2 mi East 3.5 mph - N/A   Mostly Cloudy
7:00 PM 78.8 °F 48.2 °F 34% 29.71 in 6.2 mi ENE 3.5 mph - N/A   Unknown
8:00 PM 78.8 °F 48.2 °F 34% 29.71 in 3.1 mi East 3.5 mph - N/A   Mostly Cloudy
9:00 PM 71.6 °F 53.6 °F 53% 29.71 in 5.0 mi Calm Calm - N/A   Scattered Clouds
10:00 PM 73.4 °F 44.6 °F 36% 29.71 in 6.2 mi NNE 11.5 mph - N/A   Scattered Clouds
11:00 PM 73.4 °F 44.6 °F 36% 29.71 in 6.2 mi NE 8.1 mph - N/A   Scattered Clouds